Wind_Speed
5 4 4 3 2 2 3 3 5 7 11 15 17 20 20 18 16 14 10 9 6 10 10 8 6 2 2 2 2 3 4 10 9 9 8 7 3 7 7 6 4 2 2 1 10
5 4 4 4 3 3 3 5 5 7 9 13 17 20 20 19 16 13 12 6 9 12 12 3 1 1 1 1 4 2 9 7 6 6 8 7 3 3 4 7 6 5 7 9 9
5 4 4 4 4 3 4 4 6 6 8 12 17 20 20 18 13 11 12 8 12 13 9 3 2 1 2 0 2 3 5 9 7 7 3 3 6 0 5 4 11 5 13 8 6
6 5 5 5 4 4 5 4 6 7 8 11 16 19 21 19 6 18 14 11 14 9 8 3 1 2 2 0 4 1 7 8 9 8 4 4 4 2 3 3 11 3 5 6 3
7 6 6 5 5 5 5 5 5 7 8 11 15 19 22 22 6 10 16 13 15 9 8 4 3 3 3 3 2 2 8 8 7 8 5 5 6 4 5 6 4 7 9 8 7
8 7 6 6 5 5 5 6 6 6 8 10 14 19 23 17 23 10 16 14 16 9 7 7 4 6 3 5 4 6 8 6 5 6 6 8 6 4 3 6 4 6 6 8 7
8 8 7 6 6 5 6 5 6 6 8 11 13 18 23 17 22 14 16 14 15 11 7 8 8 5 5 4 6 6 6 2 5 7 7 13 9 5 7 6 6 5 6 9 8
9 8 7 5 5 5 5 5 6 6 7 10 12 16 16 22 21 17 17 16 15 14 10 10 9 7 6 7 6 7 7 1 6 7 10 10 6 5 7 7 8 9 7 9 10
10 9 8 5 5 5 5 6 7 7 7 9 12 14 11 20 20 18 18 13 14 12 15 13 11 7 9 8 9 8 9 5 5 5 10 7 11 11 8 8 10 10 11 9 10
11 9 8 5 5 5 6 6 7 8 8 8 10 9 12 16 19 17 16 13 12 10 9 11 9 9 9 14 5 8 6 5 6 7 11 7 8 6 10 9 11 12 14 9 14
11 9 7 4 5 5 6 7 7 5 9 10 5 4 6 15 20 18 15 14 12 11 9 7 11 14 11 6 3 3 4 7 6 7 7 7 7 9 1 6 12 13 13 13 12
11 9 6 4 5 6 7 10 12 12 3 8 11 13 9 11 16 17 16 15 14 12 10 10 13 13 9 8 6 6 7 5 4 7 5 4 5 8 6 3 8 10 11 12 13
10 8 6 5 5 7 8 10 10 10 7 7 10 9 7 14 16 19 20 16 11 12 13 14 7 10 7 10 9 10 11 5 8 10 3 3 9 7 11 6 6 9 9 8 13
10 8 6 5 6 8 9 12 9 10 7 10 12 9 12 12 11 17 19 13 11 14 13 14 14 8 11 12 10 12 3 7 9 10 9 3 6 14 12 12 4 5 8 10 11
9 8 5 4 6 10 14 16 10 14 6 11 15 12 12 15 10 18 19 16 12 9 10 9 11 14 14 13 8 12 6 10 12 12 3 2 9 18 15 13 7 3 4 8 13
8 7 6 6 9 12 15 16 13 5 5 13 14 14 17 12 10 15 19 16 10 11 12 12 7 11 13 10 10 9 11 14 14 16 13 1 17 5 14 11 9 4 3 7 10
8 6 6 8 13 15 18 15 6 13 10 13 15 17 14 12 11 16 21 19 14 15 16 14 15 12 11 10 9 10 11 19 11 7 9 3 10 12 11 10 8 6 3 6 7
7 5 7 10 14 17 20 10 11 5 11 10 17 18 16 13 11 15 16 17 15 13 14 17 20 16 12 12 10 9 15 17 3 1 6 4 14 10 11 11 11 10 7 4 5
4 4 8 12 15 20 21 14 10 9 8 13 17 19 15 15 12 15 14 15 13 13 7 8 8 12 11 6 8 7 11 11 8 7 5 6 16 12 10 10 9 8 9 9 6
2 5 9 12 15 21 12 16 5 5 10 13 18 19 17 18 14 15 14 13 11 11 10 2 6 12 11 7 9 9 5 8 9 7 2 6 10 15 8 11 10 8 7 2 5
4 7 8 12 14 21 15 9 8 7 10 14 16 18 16 19 13 13 13 7 11 8 11 9 9 6 10 13 14 9 10 8 11 10 8 5 6 6 10 9 8 6 6 4 6
8 3 9 12 10 13 14 11 10 6 11 10 8 15 16 17 15 12 9 4 12 7 7 12 12 15 15 11 10 9 11 10 11 9 5 10 8 10 10 7 3 5 11 15 13
8 7 9 15 10 13 14 10 9 6 9 10 10 9 13 14 13 10 9 11 6 7 7 7 14 18 17 17 10 13 13 13 15 15 14 12 7 9 8 4 7 9 15 18 17
7 4 4 14 10 9 15 14 11 8 8 11 11 11 13 12 9 12 9 6 7 7 12 12 15 19 13 8 9 9 10 12 14 20 19 10 11 9 3 3 1 9 13 17 20
10 5 9 7 10 13 8 9 14 9 9 10 9 13 14 12 10 10 9 7 6 13 12 11 17 19 21 17 14 15 18 16 14 16 17 20 7 5 3 1 2 4 12 16 18
14 11 15 6 7 12 11 11 13 12 8 13 10 12 12 8 6 6 8 8 9 8 8 13 21 20 24 22 20 20 19 17 16 17 17 16 16 2 1 2 4 7 7 15 18
13 16 10 7 6 8 10 11 13 9 7 7 9 10 10 10 9 7 8 10 12 13 13 15 15 15 20 16 16 17 15 16 14 10 10 10 5 1 3 4 8 11 10 17 22
Wind_Direction
8 3 358 358 337 272 234 223 221 215 205 201 197 194 192 191 189 184 175 211 188 185 155 117 103 38 60 47 57 339 25 40 22 16 7 356 301 252 232 254 212 199 299 344 308
349 350 332 326 324 289 255 231 221 216 204 197 195 193 191 191 191 192 203 200 165 148 142 131 132 218 83 358 350 13 21 35 2 351 341 358 13 239 251 222 206 264 243 261 287
336 329 319 307 299 286 261 239 222 214 206 196 193 191 189 188 190 221 202 193 160 152 153 197 196 80 178 172 340 350 26 350 345 336 349 333 2 156 232 254 232 229 227 283 284
334 320 303 295 286 272 256 241 222 212 205 198 193 189 185 178 163 226 199 185 169 164 153 183 181 158 248 237 335 346 347 345 344 331 321 334 303 331 257 273 305 244 228 236 248
334 323 302 286 282 264 253 235 222 210 203 200 195 188 183 178 199 215 197 191 185 181 165 196 186 213 233 280 322 341 333 339 339 352 332 306 293 282 275 251 261 209 213 205 196
336 328 309 286 276 260 246 229 219 206 202 200 197 191 186 184 225 204 195 194 193 186 201 209 201 219 226 275 297 312 329 339 344 347 336 329 281 261 286 245 217 208 210 194 187
336 330 318 287 271 255 239 226 211 205 200 200 198 195 193 187 218 205 195 197 201 191 207 220 225 206 283 272 270 305 314 312 343 345 330 340 256 261 257 215 216 209 201 201 184
337 329 321 296 266 251 232 218 205 201 198 197 198 197 185 209 205 199 197 201 203 205 192 218 229 237 241 262 277 264 268 305 339 340 329 352 14 307 240 212 215 215 189 202 184
330 328 322 301 260 243 223 210 199 196 194 193 194 195 200 214 202 197 196 204 210 216 224 232 237 233 242 226 234 233 221 12 329 340 334 321 312 302 268 224 215 212 197 197 184
325 323 322 299 249 234 216 200 192 190 187 180 187 167 227 206 194 195 195 186 196 211 226 238 230 232 209 224 242 242 323 320 325 337 341 340 346 332 270 216 205 202 205 201 190
324 317 319 293 241 230 209 180 171 207 193 143 216 144 162 167 195 192 194 187 194 204 209 226 208 219 217 238 239 252 266 291 337 340 349 3 12 11 252 218 200 211 214 193 198
319 312 309 280 242 227 205 192 194 197 216 207 192 205 195 194 187 190 187 184 194 206 204 207 223 219 237 241 231 246 250 289 313 331 317 337 19 30 74 225 199 190 206 215 190
311 309 299 267 241 212 198 183 164 163 128 241 177 194 190 182 190 192 188 184 207 207 209 220 214 209 227 211 222 228 273 344 301 331 265 34 7 58 54 78 169 187 191 206 229
300 303 289 261 232 199 184 175 165 160 182 196 185 190 186 162 192 201 192 192 208 218 218 231 227 237 217 217 234 260 213 281 291 296 269 156 232 86 57 41 84 184 197 189 195
290 291 273 237 208 189 182 174 177 165 238 169 172 190 182 160 191 187 200 197 207 213 211 236 222 220 212 220 230 260 298 272 279 281 296 130 90 88 60 58 42 121 186 186 201
284 276 253 208 200 184 174 167 171 224 183 169 189 176 175 186 191 188 185 192 208 222 225 223 203 200 211 226 242 246 281 272 258 246 350 262 117 350 54 52 51 69 153 173 221
280 262 233 202 195 179 166 161 197 244 151 177 178 175 169 175 186 182 186 194 200 196 212 223 226 220 216 225 234 246 255 255 219 201 213 167 38 54 65 57 63 68 143 170 238
277 245 212 195 187 175 168 176 244 154 198 172 172 172 177 171 169 170 183 197 207 231 173 199 185 201 210 226 266 227 244 270 246 133 242 159 127 91 78 81 74 69 74 151 175
266 212 194 188 182 174 168 202 235 193 175 168 168 176 181 176 176 175 180 192 199 196 258 199 128 172 188 204 212 184 220 300 278 200 96 201 105 101 83 80 75 69 86 104 149
201 173 186 182 180 175 186 222 225 181 182 184 183 186 180 182 179 186 184 195 193 204 212 273 179 187 192 207 224 245 302 255 259 185 286 351 178 136 128 92 78 75 61 176 211
135 123 198 180 174 179 195 216 207 222 193 189 198 193 187 184 187 189 180 167 190 207 210 216 251 194 199 224 224 206 235 247 306 328 331 287 79 141 121 105 90 54 24 342 283
138 186 226 188 167 196 204 227 221 206 206 199 208 200 206 185 197 195 183 177 201 185 205 215 261 229 224 214 229 258 278 287 267 254 315 315 124 157 128 136 212 296 309 312 317
118 253 218 188 188 209 208 223 204 203 196 198 200 197 196 187 200 204 188 215 214 205 225 225 238 251 244 225 225 237 242 247 269 293 294 300 142 149 133 167 240 294 292 284 288
169 180 213 199 211 227 215 211 212 207 195 181 194 189 188 194 201 199 199 210 220 216 224 233 250 263 289 267 258 277 234 256 271 287 299 309 124 180 142 77 43 282 274 287 293
186 204 190 217 223 215 223 215 209 211 199 188 195 195 201 205 196 203 193 224 229 254 249 248 262 266 273 277 260 258 270 271 269 273 281 284 358 160 199 219 337 310 281 276 275
191 199 207 216 231 206 222 214 211 211 195 212 208 199 199 212 203 198 204 237 243 244 256 257 263 265 268 267 267 270 268 263 263 265 265 271 270 285 250 327 315 319 303 284 284
218 214 212 224 209 210 215 211 210 199 215 172 192 192 206 198 210 239 255 255 254 260 257 261 257 261 260 267 275 250 266 260 245 263 257 273 261 305 265 309 305 301 298 290 295
Height
3159 3158 3157 3156 3155 3155 3155 3155 3155 3155 3156 3158 3160 3163 3166 3169 3172 3174 3175 3176 3177 3177 3179 3181 3182 3185 3186 3187 3184 3181 3178 3180 3182 3182 3181 3180 3179 3179 3179 3180 3179 3177 3178 3175 3173
3159 3158 3157 3155 3155 3154 3154 3154 3154 3155 3156 3157 3159 3162 3165 3169 3172 3174 3175 3176 3177 3178 3180 3184 3188 3187 3188 3188 3187 3184 3182 3184 3184 3183 3181 3179 3178 3178 3179 3179 3177 3178 3175 3174 3174
3158 3157 3156 3155 3154 3154 3153 3154 3154 3154 3155 3157 3159 3162 3165 3169 3174 3175 3175 3176 3177 3179 3180 3183 3186 3188 3188 3188 3188 3186 3185 3185 3184 3182 3181 3180 3179 3178 3178 3176 3176 3175 3174 3172 3173
3157 3156 3155 3154 3153 3153 3153 3153 3153 3154 3155 3157 3158 3162 3165 3170 3177 3171 3174 3176 3178 3180 3181 3184 3187 3188 3188 3188 3188 3187 3186 3185 3183 3181 3180 3180 3179 3178 3178 3178 3173 3175 3172 3173 3172
3156 3155 3154 3153 3152 3152 3152 3152 3153 3153 3154 3156 3158 3161 3165 3170 3171 3169 3173 3176 3178 3180 3181 3186 3188 3189 3188 3189 3188 3187 3186 3184 3182 3180 3179 3178 3178 3178 3177 3176 3174 3175 3173 3173 3173
3156 3154 3153 3152 3151 3151 3150 3151 3152 3153 3154 3155 3158 3161 3165 3169 3169 3170 3173 3176 3178 3180 3182 3186 3188 3188 3188 3188 3187 3186 3185 3184 3182 3180 3179 3177 3176 3176 3175 3174 3174 3173 3173 3174 3174
3155 3153 3151 3150 3150 3149 3149 3150 3151 3152 3153 3155 3157 3159 3163 3170 3166 3170 3173 3176 3178 3180 3185 3186 3186 3188 3188 3187 3186 3185 3184 3182 3182 3180 3179 3174 3172 3174 3174 3173 3173 3173 3173 3174 3174
3153 3152 3150 3149 3148 3148 3149 3149 3150 3151 3152 3154 3156 3159 3163 3164 3164 3169 3172 3175 3177 3179 3182 3183 3184 3186 3187 3187 3185 3184 3182 3179 3180 3179 3177 3175 3173 3172 3171 3170 3171 3172 3172 3173 3173
3152 3150 3149 3148 3147 3147 3147 3148 3149 3151 3152 3153 3156 3158 3164 3161 3164 3168 3172 3175 3177 3179 3180 3181 3184 3186 3187 3185 3182 3180 3180 3179 3179 3178 3176 3175 3173 3171 3168 3169 3170 3169 3171 3172 3173
3150 3149 3147 3146 3146 3146 3146 3147 3148 3150 3151 3153 3156 3160 3159 3161 3164 3168 3171 3175 3178 3180 3181 3182 3184 3184 3183 3179 3187 3184 3179 3178 3177 3177 3175 3172 3169 3168 3165 3165 3168 3166 3169 3171 3172
3148 3147 3146 3145 3144 3145 3146 3147 3151 3152 3151 3154 3157 3157 3158 3162 3163 3167 3170 3174 3178 3180 3180 3181 3183 3180 3177 3178 3181 3181 3181 3177 3176 3175 3173 3171 3169 3166 3165 3162 3165 3167 3166 3166 3172
3146 3145 3144 3143 3143 3144 3145 3146 3147 3149 3153 3151 3152 3155 3156 3159 3162 3166 3169 3174 3176 3177 3179 3181 3179 3177 3177 3180 3181 3180 3178 3174 3174 3173 3172 3171 3169 3166 3164 3164 3164 3167 3167 3167 3170
3144 3143 3142 3142 3142 3142 3144 3145 3147 3148 3152 3152 3151 3154 3155 3158 3163 3165 3168 3172 3175 3176 3177 3176 3175 3176 3178 3180 3180 3177 3174 3174 3175 3172 3169 3165 3168 3167 3163 3163 3163 3166 3169 3171 3169
3142 3141 3140 3140 3142 3141 3143 3145 3147 3148 3151 3152 3152 3154 3155 3158 3163 3164 3166 3172 3173 3174 3175 3175 3175 3176 3178 3178 3177 3173 3174 3176 3174 3172 3163 3164 3174 3163 3164 3163 3164 3166 3167 3170 3172
3139 3138 3138 3138 3139 3140 3142 3144 3147 3149 3144 3150 3152 3152 3156 3158 3159 3162 3165 3169 3171 3172 3174 3172 3173 3174 3176 3175 3175 3173 3174 3174 3171 3169 3167 3162 3166 3162 3165 3167 3167 3167 3167 3169 3170
3136 3136 3136 3136 3137 3139 3141 3144 3148 3152 3140 3147 3148 3150 3155 3157 3159 3160 3163 3168 3170 3171 3171 3170 3172 3173 3173 3174 3174 3174 3173 3170 3167 3164 3170 3159 3160 3167 3167 3169 3169 3169 3169 3169 3168
3133 3133 3133 3134 3136 3138 3141 3145 3150 3144 3141 3145 3146 3149 3153 3155 3158 3159 3162 3164 3166 3167 3167 3168 3169 3171 3172 3172 3172 3172 3169 3159 3155 3153 3164 3159 3163 3168 3168 3170 3170 3170 3170 3170 3169
3130 3130 3131 3132 3134 3137 3141 3146 3145 3136 3140 3141 3145 3149 3151 3154 3156 3158 3161 3162 3163 3163 3161 3161 3163 3166 3168 3170 3167 3166 3163 3157 3153 3148 3157 3158 3166 3170 3170 3171 3172 3172 3171 3172 3173
3128 3128 3129 3131 3133 3136 3141 3144 3138 3137 3140 3142 3145 3148 3149 3152 3155 3157 3159 3159 3161 3162 3159 3157 3158 3163 3166 3167 3167 3164 3161 3157 3151 3151 3150 3162 3163 3169 3171 3171 3171 3171 3170 3171 3173
3126 3127 3129 3130 3132 3136 3140 3138 3138 3138 3140 3142 3143 3145 3146 3150 3152 3154 3156 3157 3159 3161 3161 3159 3159 3161 3164 3166 3165 3163 3163 3158 3152 3155 3149 3156 3155 3162 3169 3168 3169 3170 3169 3168 3168
3126 3130 3129 3130 3132 3135 3138 3138 3139 3140 3140 3141 3141 3143 3144 3147 3149 3151 3153 3157 3158 3160 3161 3161 3160 3161 3162 3162 3159 3162 3160 3158 3154 3152 3148 3147 3167 3169 3166 3166 3168 3168 3167 3167 3167
3125 3133 3129 3130 3134 3136 3137 3138 3138 3139 3139 3140 3139 3141 3141 3145 3148 3149 3152 3154 3156 3159 3160 3160 3157 3155 3154 3155 3157 3158 3157 3155 3152 3154 3154 3153 3159 3163 3163 3163 3164 3165 3165 3165 3165
3126 3129 3127 3129 3133 3135 3136 3137 3138 3138 3139 3141 3141 3140 3141 3145 3148 3149 3151 3153 3155 3158 3159 3160 3158 3154 3151 3151 3155 3157 3157 3157 3156 3152 3151 3153 3156 3161 3160 3160 3161 3162 3163 3163 3163
3126 3130 3127 3128 3130 3131 3133 3135 3136 3136 3138 3139 3140 3142 3143 3145 3147 3149 3152 3153 3153 3156 3156 3157 3156 3153 3149 3162 3158 3155 3155 3157 3158 3154 3150 3151 3156 3162 3162 3159 3159 3159 3160 3160 3160
3125 3128 3126 3129 3130 3131 3132 3133 3135 3136 3137 3138 3140 3141 3142 3144 3145 3148 3149 3152 3152 3151 3154 3156 3155 3153 3149 3150 3153 3154 3154 3154 3156 3157 3157 3154 3155 3157 3157 3157 3157 3156 3156 3155 3156
3120 3122 3124 3127 3127 3130 3131 3132 3133 3134 3136 3137 3138 3140 3141 3143 3144 3147 3148 3150 3152 3151 3152 3153 3152 3153 3150 3150 3150 3149 3151 3151 3154 3155 3156 3156 3158 3155 3155 3154 3154 3153 3152 3150 3150
3118 3120 3122 3125 3127 3129 3129 3131 3133 3132 3135 3134 3136 3139 3141 3140 3141 3143 3145 3147 3149 3148 3149 3150 3149 3149 3146 3146 3145 3146 3147 3148 3150 3152 3154 3156 3154 3152 3153 3152 3150 3151 3151 3146 3145